| time (UTC) | temp F | wind direction | speed knots | gust knots | rain 1hr in | rain 24hr in | rain mn in | humidity % | barometer mb |
| 20260831141326 | 76 | 250 | 0.0 | 1.7 | 0.00 | 0.18 | 0.00 | 79 | 1018.4 |
| 20260831140820 | 76 | 183 | 0.0 | 0.9 | 0.00 | 0.18 | 0.00 | 80 | 1018.4 |
| 20260831140314 | 76 | 181 | 0.0 | 0.9 | 0.00 | 0.19 | 0.00 | 80 | 1018.4 |
| 20260831135808 | 75 | 278 | 0.0 | 0.9 | 0.00 | 0.19 | 0.00 | 81 | 1018.4 |
| 20260831135306 | 75 | 215 | 0.0 | 0.9 | 0.00 | 0.20 | 0.00 | 82 | 1018.3 |
| 20260831135028 | 74 | 218 | 0.0 | 1.7 | 0.00 | 0.21 | 0.00 | 83 | 1018.2 |
| 20260831134250 | 74 | 198 | 0.0 | 1.7 | 0.00 | 0.21 | 0.00 | 82 | 1018.2 |
| 20260831133744 | 74 | 233 | 0.0 | 0.0 | 0.00 | 0.22 | 0.00 | 83 | 1018.4 |
| 20260831133238 | 74 | 200 | 0.0 | 0.0 | 0.00 | 0.24 | 0.00 | 83 | 1018.5 |
| 20260831132732 | 74 | 200 | 0.0 | 0.0 | 0.00 | 0.26 | 0.00 | 83 | 1018.4 |
| 20260831132226 | 73 | 198 | 0.0 | 0.0 | 0.00 | 0.27 | 0.00 | 83 | 1018.4 |
| 20260831131720 | 74 | 198 | 0.0 | 0.0 | 0.00 | 0.28 | 0.00 | 83 | 1018.4 |
| 20260831131214 | 73 | 198 | 0.0 | 0.0 | 0.00 | 0.29 | 0.00 | 83 | 1018.4 |
| 20260831130708 | 73 | 202 | 0.0 | 0.0 | 0.00 | 0.30 | 0.00 | 83 | 1018.3 |
| 20260831130202 | 73 | 200 | 0.0 | 0.0 | 0.00 | 0.30 | 0.00 | 83 | 1018.2 |
| 20260831125656 | 73 | 200 | 0.0 | 0.9 | 0.00 | 0.30 | 0.00 | 83 | 1018.2 |
| 20260831125150 | 73 | 211 | 0.0 | 0.9 | 0.00 | 0.30 | 0.00 | 84 | 1018.3 |
| 20260831124644 | 73 | 207 | 0.0 | 0.0 | 0.00 | 0.30 | 0.00 | 84 | 1018.2 |
| 20260831124138 | 73 | 218 | 0.0 | 0.0 | 0.00 | 0.30 | 0.00 | 85 | 1018.2 |
| 20260831123632 | 72 | 218 | 0.0 | 0.0 | 0.00 | 0.30 | 0.00 | 85 | 1018.1 |
| 20260831123126 | 72 | 218 | 0.0 | 0.0 | 0.00 | 0.31 | 0.00 | 85 | 1018.0 |
| 20260831122620 | 72 | 218 | 0.0 | 0.0 | 0.00 | 0.31 | 0.00 | 85 | 1018.2 |
| 20260831122113 | 72 | 218 | 0.0 | 0.0 | 0.00 | 0.31 | 0.00 | 86 | 1018.2 |
| 20260831121607 | 72 | 218 | 0.0 | 0.0 | 0.00 | 0.31 | 0.00 | 86 | 1018.2 |
| 20260831121102 | 72 | 218 | 0.0 | 0.0 | 0.00 | 0.31 | 0.00 | 86 | 1018.2 |
| 20260831120555 | 72 | 218 | 0.0 | 0.0 | 0.00 | 0.31 | 0.00 | 86 | 1018.2 |
| 20260831120049 | 71 | 221 | 0.0 | 0.0 | 0.00 | 0.31 | 0.00 | 86 | 1018.2 |
| 20260831115544 | 71 | 224 | 0.0 | 0.0 | 0.00 | 0.31 | 0.00 | 86 | 1018.4 |
| 20260831115038 | 71 | 221 | 0.0 | 0.0 | 0.00 | 0.31 | 0.00 | 86 | 1018.4 |
| 20260831114532 | 71 | 221 | 0.0 | 0.0 | 0.00 | 0.31 | 0.00 | 86 | 1018.4 |
| 20260831114026 | 71 | 221 | 0.0 | 0.0 | 0.00 | 0.31 | 0.00 | 86 | 1018.4 |
| 20260831113519 | 71 | 221 | 0.0 | 0.0 | 0.00 | 0.31 | 0.00 | 86 | 1018.4 |
| 20260831113014 | 71 | 221 | 0.0 | 0.0 | 0.00 | 0.31 | 0.00 | 86 | 1018.4 |
| 20260831112508 | 71 | 221 | 0.0 | 0.0 | 0.00 | 0.31 | 0.00 | 87 | 1018.4 |
| 20260831112002 | 71 | 221 | 0.0 | 0.0 | 0.00 | 0.31 | 0.00 | 86 | 1018.3 |
| 20260831111456 | 71 | 221 | 0.0 | 0.0 | 0.00 | 0.31 | 0.00 | 86 | 1018.3 |
| 20260831110950 | 71 | 221 | 0.0 | 0.0 | 0.00 | 0.31 | 0.00 | 86 | 1018.3 |
| 20260831110444 | 71 | 221 | 0.0 | 0.0 | 0.00 | 0.31 | 0.00 | 86 | 1018.3 |
| 20260831110209 | 71 | 221 | 0.0 | 0.0 | 0.00 | 0.31 | 0.00 | 86 | 1018.1 |
| 20260831105432 | 71 | 221 | 0.0 | 0.0 | 0.00 | 0.31 | 0.00 | 86 | 1018.3 |
| 20260831105203 | 71 | 221 | 0.0 | 0.0 | 0.00 | 0.31 | 0.00 | 86 | 1018.3 |
| 20260831104703 | 71 | 221 | 0.0 | 0.0 | 0.00 | 0.31 | 0.00 | 86 | 1018.2 |
| 20260831103932 | 71 | 221 | 0.0 | 0.9 | 0.00 | 0.31 | 0.00 | 86 | 1018.2 |
| 20260831103432 | 71 | 221 | 0.0 | 0.9 | 0.00 | 0.31 | 0.00 | 87 | 1018.1 |
| 20260831102931 | 71 | 222 | 0.0 | 0.0 | 0.00 | 0.31 | 0.00 | 86 | 1018.1 |
| 20260831102432 | 71 | 222 | 0.0 | 0.0 | 0.00 | 0.31 | 0.00 | 86 | 1018.2 |
| 20260831101929 | 71 | 222 | 0.0 | 0.0 | 0.00 | 0.31 | 0.00 | 86 | 1018.1 |
| 20260831101430 | 71 | 222 | 0.0 | 0.0 | 0.00 | 0.31 | 0.00 | 86 | 1018.1 |
| 20260831100929 | 71 | 222 | 0.0 | 0.0 | 0.00 | 0.31 | 0.00 | 86 | 1018.1 |
| 20260831100427 | 71 | 222 | 0.0 | 0.0 | 0.00 | 0.31 | 0.00 | 86 | 1018.1 |
| 20260831095925 | 71 | 222 | 0.0 | 0.0 | 0.00 | 0.32 | 0.00 | 86 | 1018.1 |
| 20260831095656 | 71 | 222 | 0.0 | 0.0 | 0.00 | 0.32 | 0.00 | 86 | 1018.0 |
| 20260831094922 | 71 | 222 | 0.0 | 0.9 | 0.00 | 0.32 | 0.00 | 86 | 1017.9 |
| 20260831094650 | 71 | 222 | 0.0 | 0.9 | 0.00 | 0.32 | 0.00 | 86 | 1017.9 |
| 20260831093919 | 71 | 224 | 0.0 | 0.0 | 0.00 | 0.32 | 0.00 | 85 | 1018.2 |
| 20260831093420 | 71 | 224 | 0.0 | 0.0 | 0.00 | 0.32 | 0.00 | 85 | 1018.3 |
| 20260831092916 | 71 | 224 | 0.0 | 0.0 | 0.00 | 0.32 | 0.00 | 85 | 1018.1 |
| 20260831092412 | 71 | 224 | 0.0 | 0.9 | 0.00 | 0.32 | 0.00 | 85 | 1018.2 |
| 20260831091914 | 71 | 230 | 0.0 | 0.9 | 0.00 | 0.32 | 0.00 | 85 | 1018.1 |
| 20260831091412 | 71 | 240 | 0.0 | 1.7 | 0.00 | 0.32 | 0.00 | 85 | 1018.1 |
| 20260831090913 | 71 | 236 | 0.0 | 1.7 | 0.00 | 0.32 | 0.00 | 85 | 1018.1 |
| 20260831090415 | 71 | 272 | 0.0 | 1.7 | 0.00 | 0.32 | 0.00 | 85 | 1018.1 |
| 20260831085914 | 71 | 264 | 0.0 | 0.0 | 0.00 | 0.32 | 0.00 | 85 | 1018.0 |
| 20260831085412 | 71 | 259 | 0.0 | 0.9 | 0.00 | 0.32 | 0.00 | 85 | 1018.0 |
| 20260831084914 | 71 | 259 | 0.0 | 0.9 | 0.00 | 0.32 | 0.00 | 85 | 1017.9 |
| 20260831084411 | 71 | 252 | 0.0 | 0.9 | 0.00 | 0.32 | 0.00 | 85 | 1017.9 |
| 20260831083909 | 71 | 252 | 0.0 | 0.9 | 0.00 | 0.33 | 0.00 | 85 | 1017.8 |
| 20260831083409 | 71 | 237 | 0.0 | 0.9 | 0.00 | 0.33 | 0.00 | 85 | 1017.8 |
| 20260831082908 | 71 | 238 | 0.0 | 1.7 | 0.00 | 0.33 | 0.00 | 85 | 1017.8 |
| 20260831082641 | 71 | 238 | 0.0 | 1.7 | 0.00 | 0.33 | 0.00 | 85 | 1017.8 |
| 20260831081908 | 71 | 247 | 0.0 | 0.0 | 0.00 | 0.33 | 0.00 | 85 | 1017.8 |
| 20260831081640 | 71 | 197 | 0.0 | 0.0 | 0.00 | 0.33 | 0.00 | 85 | 1017.8 |
| 20260831080909 | 71 | 198 | 0.0 | 0.0 | 0.00 | 0.33 | 0.00 | 85 | 1017.7 |
| 20260831080409 | 71 | 152 | 0.0 | 0.0 | 0.00 | 0.33 | 0.00 | 86 | 1017.8 |
| 20260831075906 | 71 | 155 | 0.0 | 0.9 | 0.00 | 0.33 | 0.00 | 86 | 1017.9 |
| 20260831075404 | 71 | 213 | 0.0 | 0.9 | 0.00 | 0.33 | 0.00 | 86 | 1017.9 |
| 20260831074905 | 71 | 208 | 0.0 | 0.9 | 0.00 | 0.33 | 0.00 | 86 | 1018.0 |
| 20260831074404 | 71 | 208 | 0.0 | 0.9 | 0.00 | 0.33 | 0.00 | 86 | 1017.9 |
| 20260831073904 | 71 | 208 | 0.0 | 0.9 | 0.00 | 0.33 | 0.00 | 86 | 1018.1 |
| 20260831073408 | 71 | 244 | 0.0 | 0.9 | 0.00 | 0.33 | 0.00 | 86 | 1018.1 |
| 20260831072907 | 71 | 252 | 0.0 | 0.0 | 0.00 | 0.33 | 0.00 | 86 | 1018.2 |
| 20260831072407 | 71 | 188 | 0.0 | 0.0 | 0.00 | 0.33 | 0.00 | 86 | 1018.2 |
| 20260831072139 | 71 | 195 | 0.0 | 0.9 | 0.00 | 0.33 | 0.00 | 86 | 1018.1 |
| 20260831071404 | 71 | 217 | 0.0 | 1.7 | 0.00 | 0.33 | 0.00 | 86 | 1018.2 |
| 20260831070904 | 71 | 271 | 0.0 | 1.7 | 0.00 | 0.33 | 0.00 | 86 | 1018.4 |
| 20260831070403 | 71 | 270 | 0.0 | 2.6 | 0.00 | 0.33 | 0.00 | 86 | 1018.4 |
| 20260831065900 | 71 | 280 | 0.0 | 2.6 | 0.00 | 0.33 | 0.00 | 86 | 1018.4 |
| 20260831065402 | 71 | 255 | 0.0 | 0.9 | 0.00 | 0.33 | 0.00 | 86 | 1018.4 |
| 20260831064900 | 71 | 262 | 0.0 | 1.7 | 0.00 | 0.33 | 0.00 | 86 | 1018.6 |
| 20260831064631 | 71 | 258 | 0.0 | 1.7 | 0.00 | 0.33 | 0.00 | 86 | 1018.5 |
| 20260831063901 | 71 | 270 | 0.0 | 0.0 | 0.00 | 0.33 | 0.00 | 85 | 1018.5 |
| 20260831063402 | 71 | 270 | 0.0 | 0.9 | 0.00 | 0.33 | 0.00 | 85 | 1018.5 |
| 20260831062900 | 71 | 270 | 0.0 | 0.9 | 0.00 | 0.33 | 0.00 | 85 | 1018.5 |
| 20260831062632 | 71 | 270 | 0.0 | 2.6 | 0.00 | 0.33 | 0.00 | 85 | 1018.4 |
| 20260831061900 | 71 | 284 | 0.0 | 2.6 | 0.00 | 0.33 | 0.00 | 85 | 1018.6 |
| 20260831061402 | 71 | 153 | 0.0 | 0.9 | 0.00 | 0.33 | 0.00 | 84 | 1018.5 |
| 20260831060901 | 71 | 184 | 0.0 | 0.9 | 0.00 | 0.33 | 0.00 | 84 | 1018.4 |
| 20260831060402 | 71 | 217 | 0.0 | 0.9 | 0.00 | 0.33 | 0.00 | 84 | 1018.5 |
| 20260831055901 | 72 | 225 | 0.0 | 4.3 | 0.00 | 0.33 | 0.00 | 84 | 1018.4 |
| 20260831055631 | 72 | 230 | 0.0 | 4.3 | 0.00 | 0.33 | 0.00 | 84 | 1018.6 |
| 20260831054900 | 72 | 210 | 0.0 | 0.9 | 0.00 | 0.33 | 0.00 | 84 | 1018.6 |
| 20260831054625 | 72 | 204 | 0.0 | 0.9 | 0.00 | 0.33 | 0.00 | 84 | 1018.7 |
| 20260831053849 | 72 | 206 | 0.0 | 0.9 | 0.00 | 0.33 | 0.00 | 84 | 1018.7 |
| 20260831053343 | 72 | 230 | 0.0 | 0.9 | 0.00 | 0.33 | 0.00 | 84 | 1018.7 |
| 20260831052837 | 72 | 230 | 0.0 | 0.9 | 0.00 | 0.33 | 0.00 | 83 | 1018.8 |
| 20260831052331 | 72 | 220 | 0.0 | 1.7 | 0.00 | 0.33 | 0.00 | 83 | 1018.7 |
| 20260831052055 | 72 | 225 | 0.0 | 1.7 | 0.00 | 0.33 | 0.00 | 83 | 1018.7 |
| 20260831051319 | 72 | 210 | 0.0 | 0.0 | 0.00 | 0.33 | 0.00 | 83 | 1018.8 |
| 20260831050813 | 72 | 235 | 0.0 | 2.6 | 0.00 | 0.33 | 0.00 | 82 | 1018.8 |
| 20260831050537 | 72 | 231 | 0.0 | 2.6 | 0.00 | 0.33 | 0.00 | 82 | 1018.8 |
| 20260831050032 | 72 | 209 | 0.0 | 2.6 | 0.00 | 0.33 | 0.00 | 82 | 1018.8 |
| 20260831045255 | 72 | 216 | 0.9 | 2.6 | 0.00 | 0.33 | 0.00 | 82 | 1018.8 |
| 20260831044752 | 72 | 266 | 0.0 | 2.6 | 0.00 | 0.33 | 0.00 | 82 | 1018.9 |
| 20260831044252 | 72 | 195 | 0.0 | 0.9 | 0.00 | 0.33 | 0.00 | 83 | 1018.9 |
| 20260831043751 | 72 | 219 | 0.9 | 3.5 | 0.00 | 0.33 | 0.00 | 82 | 1018.9 |
| 20260831043249 | 72 | 219 | 0.9 | 3.5 | 0.00 | 0.33 | 0.00 | 82 | 1018.9 |
| 20260831042749 | 72 | 227 | 0.0 | 3.5 | 0.00 | 0.33 | 0.00 | 83 | 1018.8 |
| 20260831042248 | 72 | 302 | 0.0 | 1.7 | 0.00 | 0.33 | 0.00 | 83 | 1018.9 |
| 20260831041746 | 72 | 188 | 0.0 | 0.9 | 0.00 | 0.33 | 0.00 | 84 | 1018.8 |
| 20260831041246 | 72 | 189 | 0.0 | 0.9 | 0.00 | 0.33 | 0.00 | 84 | 1018.9 |
| 20260831040749 | 72 | 194 | 0.0 | 0.0 | 0.00 | 0.33 | 0.00 | 83 | 1018.9 |
| 20260831040245 | 72 | 197 | 0.0 | 0.0 | 0.00 | 0.33 | 0.00 | 83 | 1018.9 |
| 20260831035742 | 72 | 194 | 0.0 | 0.0 | 0.00 | 0.33 | 0.33 | 83 | 1018.8 |
| 20260831035243 | 72 | 195 | 0.0 | 0.0 | 0.00 | 0.33 | 0.33 | 83 | 1018.9 |
| 20260831034743 | 72 | 196 | 0.0 | 1.7 | 0.00 | 0.33 | 0.33 | 82 | 1018.9 |
| 20260831034241 | 72 | 195 | 0.0 | 1.7 | 0.00 | 0.33 | 0.33 | 82 | 1018.8 |
| 20260831033738 | 73 | 123 | 0.0 | 0.9 | 0.00 | 0.33 | 0.33 | 82 | 1018.9 |
| 20260831033239 | 73 | 124 | 0.0 | 0.9 | 0.00 | 0.33 | 0.33 | 82 | 1019.0 |
| 20260831032738 | 72 | 176 | 0.0 | 0.9 | 0.00 | 0.33 | 0.33 | 82 | 1018.9 |
| 20260831032237 | 72 | 143 | 0.0 | 0.9 | 0.00 | 0.33 | 0.33 | 82 | 1018.9 |
| 20260831031736 | 72 | 163 | 0.0 | 3.5 | 0.00 | 0.33 | 0.33 | 82 | 1018.9 |
| 20260831031236 | 72 | 214 | 0.0 | 3.5 | 0.00 | 0.33 | 0.33 | 83 | 1018.7 |
| 20260831031008 | 72 | 171 | 0.0 | 0.9 | 0.00 | 0.33 | 0.33 | 82 | 1018.7 |
| 20260831030238 | 72 | 172 | 0.0 | 0.9 | 0.00 | 0.33 | 0.33 | 82 | 1018.7 |
| 20260831025735 | 72 | 89 | 0.0 | 0.9 | 0.00 | 0.33 | 0.33 | 83 | 1018.7 |
| 20260831025234 | 72 | 140 | 0.0 | 0.9 | 0.00 | 0.33 | 0.33 | 83 | 1018.6 |
| 20260831024735 | 72 | 145 | 0.0 | 0.9 | 0.00 | 0.33 | 0.33 | 83 | 1018.5 |
| 20260831024235 | 72 | 140 | 0.0 | 1.7 | 0.00 | 0.33 | 0.33 | 83 | 1018.6 |
| 20260831024003 | 72 | 181 | 0.0 | 2.6 | 0.00 | 0.33 | 0.33 | 82 | 1018.5 |
| 20260831023230 | 72 | 173 | 0.0 | 2.6 | 0.00 | 0.33 | 0.33 | 83 | 1018.6 |
| 20260831022730 | 72 | 176 | 0.0 | 2.6 | 0.00 | 0.33 | 0.33 | 83 | 1018.5 |
| 20260831022231 | 72 | 188 | 0.0 | 2.6 | 0.00 | 0.33 | 0.33 | 83 | 1018.6 |
| 20260831022002 | 72 | 167 | 0.0 | 2.6 | 0.00 | 0.33 | 0.33 | 83 | 1018.6 |
| 20260831021230 | 72 | 202 | 0.0 | 1.7 | 0.00 | 0.33 | 0.33 | 83 | 1018.7 |
| 20260831020730 | 72 | 122 | 0.0 | 0.9 | 0.00 | 0.33 | 0.33 | 84 | 1018.6 |
| 20260831020229 | 71 | 140 | 0.0 | 1.7 | 0.00 | 0.33 | 0.33 | 84 | 1018.6 |
| 20260831015733 | 72 | 138 | 0.0 | 1.7 | 0.00 | 0.33 | 0.33 | 84 | 1018.6 |
| 20260831015231 | 71 | 200 | 0.0 | 1.7 | 0.00 | 0.33 | 0.33 | 84 | 1018.6 |
| 20260831014726 | 71 | 227 | 0.0 | 3.5 | 0.00 | 0.33 | 0.33 | 85 | 1018.6 |
| 20260831014219 | 71 | 152 | 0.9 | 3.5 | 0.00 | 0.33 | 0.33 | 84 | 1018.5 |
| 20260831013713 | 71 | 211 | 0.9 | 3.5 | 0.00 | 0.33 | 0.33 | 85 | 1018.5 |
| 20260831013210 | 71 | 164 | 0.9 | 4.3 | 0.00 | 0.33 | 0.33 | 85 | 1018.5 |
| 20260831012710 | 71 | 231 | 0.9 | 4.3 | 0.00 | 0.33 | 0.33 | 85 | 1018.4 |
| 20260831012210 | 71 | 173 | 0.9 | 4.3 | 0.00 | 0.33 | 0.33 | 85 | 1018.5 |
| 20260831011711 | 71 | 91 | 0.9 | 4.3 | 0.00 | 0.33 | 0.33 | 84 | 1018.5 |
| 20260831011209 | 71 | 144 | 0.9 | 3.5 | 0.00 | 0.33 | 0.33 | 85 | 1018.5 |
| 20260831010709 | 71 | 97 | 0.9 | 3.5 | 0.00 | 0.33 | 0.33 | 85 | 1018.6 |
| 20260831010438 | 71 | 117 | 0.9 | 4.3 | 0.00 | 0.33 | 0.33 | 85 | 1018.6 |
| 20260831005707 | 71 | 150 | 0.9 | 4.3 | 0.00 | 0.33 | 0.33 | 85 | 1018.5 |
| 20260831005209 | 71 | 103 | 0.9 | 3.5 | 0.00 | 0.33 | 0.33 | 85 | 1018.5 |
| 20260831004709 | 71 | 146 | 0.9 | 3.5 | 0.00 | 0.33 | 0.33 | 86 | 1018.4 |
| 20260831004210 | 71 | 184 | 1.7 | 4.3 | 0.00 | 0.33 | 0.33 | 86 | 1018.2 |
| 20260831003710 | 71 | 139 | 1.7 | 4.3 | 0.00 | 0.33 | 0.33 | 86 | 1018.1 |
| 20260831003207 | 71 | 179 | 0.9 | 4.3 | 0.00 | 0.33 | 0.33 | 86 | 1018.1 |
| 20260831002939 | 71 | 127 | 0.9 | 4.3 | 0.00 | 0.33 | 0.33 | 86 | 1018.1 |
| 20260831002207 | 71 | 135 | 1.7 | 5.2 | 0.00 | 0.33 | 0.33 | 86 | 1018.1 |
| 20260831001705 | 71 | 151 | 1.7 | 5.2 | 0.00 | 0.33 | 0.33 | 86 | 1018.1 |
| 20260831001205 | 71 | 141 | 1.7 | 6.1 | 0.00 | 0.33 | 0.33 | 86 | 1018.3 |
| 20260831000707 | 71 | 150 | 1.7 | 6.1 | 0.00 | 0.33 | 0.33 | 86 | 1018.2 |
| 20260831000211 | 71 | 151 | 1.7 | 6.1 | 0.00 | 0.33 | 0.33 | 86 | 1018.4 |
| 20260831000206 | 71 | 130 | 0.9 | 4.3 | 0.00 | 0.33 | 0.33 | 86 | 1018.3 |
| 20260830235207 | 71 | 168 | 1.7 | 6.1 | 0.00 | 0.33 | 0.33 | 86 | 1018.4 |
| 20260830234702 | 71 | 130 | 0.9 | 6.1 | 0.00 | 0.33 | 0.33 | 86 | 1018.5 |
| 20260830234202 | 71 | 153 | 0.9 | 5.2 | 0.00 | 0.33 | 0.33 | 86 | 1018.7 |
| 20260830233703 | 71 | 155 | 1.7 | 3.5 | 0.00 | 0.33 | 0.33 | 86 | 1018.7 |
| 20260830233202 | 71 | 151 | 0.9 | 3.5 | 0.00 | 0.33 | 0.33 | 86 | 1018.8 |
| 20260830232703 | 71 | 149 | 0.9 | 3.5 | 0.00 | 0.33 | 0.33 | 86 | 1018.9 |
| 20260830232202 | 71 | 122 | 0.9 | 3.5 | 0.01 | 0.33 | 0.33 | 87 | 1019.2 |
| 20260830231709 | 71 | 141 | 0.0 | 0.9 | 0.01 | 0.33 | 0.33 | 87 | 1019.4 |
| 20260830231703 | 71 | 141 | 0.0 | 2.6 | 0.01 | 0.33 | 0.33 | 87 | 1019.4 |
| 20260830230935 | 71 | 122 | 0.0 | 0.9 | 0.01 | 0.33 | 0.33 | 88 | 1019.6 |
| 20260830230158 | 71 | 151 | 0.0 | 1.7 | 0.01 | 0.33 | 0.33 | 88 | 1019.5 |
| 20260830225658 | 71 | 148 | 0.0 | 1.7 | 0.01 | 0.33 | 0.33 | 88 | 1019.4 |
| 20260830225159 | 71 | 129 | 0.0 | 1.7 | 0.01 | 0.33 | 0.33 | 88 | 1019.4 |
| 20260830224929 | 71 | 130 | 0.0 | 1.7 | 0.01 | 0.33 | 0.33 | 88 | 1019.4 |
| 20260830224159 | 71 | 119 | 0.0 | 0.9 | 0.01 | 0.33 | 0.33 | 88 | 1019.4 |
| 20260830223932 | 71 | 123 | 0.0 | 0.9 | 0.01 | 0.33 | 0.33 | 88 | 1019.5 |
| 20260830223200 | 71 | 124 | 0.0 | 0.9 | 0.02 | 0.33 | 0.33 | 88 | 1019.4 |
| 20260830222658 | 71 | 145 | 0.0 | 0.9 | 0.06 | 0.33 | 0.33 | 87 | 1019.3 |
| 20260830222159 | 71 | 118 | 0.0 | 0.9 | 0.05 | 0.32 | 0.32 | 87 | 1019.2 |
| 20260830221930 | 71 | 100 | 0.0 | 0.9 | 0.07 | 0.32 | 0.32 | 87 | 1019.1 |
| 20260830221204 | 71 | 141 | 0.0 | 0.9 | 0.08 | 0.32 | 0.32 | 87 | 1019.0 |
| 20260830221159 | 71 | 129 | 0.0 | 0.9 | 0.08 | 0.32 | 0.32 | 87 | 1019.1 |
| 20260830220159 | 71 | 149 | 0.0 | 0.9 | 0.08 | 0.32 | 0.32 | 87 | 1019.2 |
| 20260830215659 | 71 | 124 | 0.0 | 0.9 | 0.08 | 0.32 | 0.32 | 87 | 1019.2 |
| 20260830215159 | 71 | 115 | 0.0 | 0.9 | 0.08 | 0.32 | 0.32 | 87 | 1019.3 |
| 20260830214930 | 72 | 119 | 0.0 | 0.9 | 0.08 | 0.32 | 0.32 | 87 | 1019.3 |
| 20260830214158 | 72 | 117 | 0.0 | 0.9 | 0.08 | 0.32 | 0.32 | 87 | 1019.2 |
| 20260830213928 | 72 | 108 | 0.0 | 1.7 | 0.08 | 0.32 | 0.32 | 86 | 1019.3 |
| 20260830213158 | 73 | 206 | 0.0 | 1.7 | 0.07 | 0.31 | 0.31 | 84 | 1019.1 |
| 20260830212929 | 73 | 134 | 0.0 | 0.9 | 0.03 | 0.27 | 0.27 | 84 | 1019.1 |
| 20260830212159 | 74 | 160 | 0.9 | 3.5 | 0.03 | 0.27 | 0.27 | 83 | 1019.0 |
| 20260830211658 | 74 | 108 | 0.9 | 3.5 | 0.01 | 0.25 | 0.26 | 82 | 1018.7 |
| 20260830211155 | 74 | 137 | 0.0 | 3.5 | 0.00 | 0.24 | 0.24 | 81 | 1018.8 |
| 20260830210655 | 74 | 156 | 0.0 | 1.7 | 0.00 | 0.24 | 0.24 | 82 | 1018.7 |
| 20260830210155 | 74 | 145 | 0.0 | 2.6 | 0.00 | 0.24 | 0.24 | 82 | 1018.8 |
| 20260830205700 | 74 | 207 | 0.9 | 5.2 | 0.00 | 0.24 | 0.24 | 82 | 1018.7 |
| 20260830205655 | 74 | 165 | 0.9 | 5.2 | 0.00 | 0.24 | 0.24 | 83 | 1018.7 |
| 20260830204654 | 74 | 137 | 1.7 | 5.2 | 0.00 | 0.24 | 0.24 | 83 | 1018.7 |
| 20260830204153 | 74 | 188 | 0.9 | 5.2 | 0.00 | 0.24 | 0.24 | 85 | 1018.7 |
| 20260830203651 | 74 | 165 | 1.7 | 5.2 | 0.00 | 0.24 | 0.24 | 86 | 1018.7 |
| 20260830203152 | 73 | 153 | 1.7 | 5.2 | 0.00 | 0.24 | 0.24 | 85 | 1018.7 |
| 20260830202652 | 73 | 148 | 0.9 | 4.3 | 0.00 | 0.24 | 0.24 | 86 | 1018.7 |
| 20260830202144 | 73 | 148 | 0.9 | 4.3 | 0.00 | 0.24 | 0.24 | 86 | 1018.7 |
| 20260830201638 | 73 | 146 | 0.9 | 3.5 | 0.00 | 0.24 | 0.24 | 86 | 1018.8 |
| 20260830201137 | 72 | 137 | 0.9 | 3.5 | 0.00 | 0.24 | 0.24 | 86 | 1018.8 |
| 20260830200635 | 72 | 145 | 0.9 | 3.5 | 0.00 | 0.24 | 0.24 | 86 | 1018.8 |
| 20260830200134 | 72 | 145 | 0.9 | 4.3 | 0.00 | 0.24 | 0.24 | 85 | 1018.9 |
| 20260830195634 | 72 | 126 | 0.9 | 6.1 | 0.03 | 0.24 | 0.24 | 85 | 1018.9 |
| 20260830195134 | 72 | 142 | 0.9 | 6.1 | 0.03 | 0.24 | 0.24 | 85 | 1018.9 |
| 20260830194637 | 72 | 136 | 0.9 | 4.3 | 0.03 | 0.24 | 0.24 | 86 | 1018.8 |
| 20260830194131 | 72 | 137 | 0.9 | 4.3 | 0.03 | 0.24 | 0.24 | 86 | 1018.8 |
| 20260830193632 | 72 | 153 | 0.0 | 2.6 | 0.03 | 0.24 | 0.24 | 86 | 1019.0 |
| 20260830193132 | 72 | 120 | 0.9 | 3.5 | 0.03 | 0.24 | 0.24 | 86 | 1019.1 |
| 20260830192630 | 71 | 84 | 0.9 | 3.5 | 0.03 | 0.24 | 0.24 | 87 | 1019.1 |
| 20260830192131 | 71 | 96 | 0.9 | 3.5 | 0.03 | 0.24 | 0.24 | 87 | 1019.1 |
| 20260830191629 | 71 | 141 | 0.9 | 5.2 | 0.03 | 0.24 | 0.24 | 86 | 1019.2 |
| 20260830191129 | 71 | 184 | 0.9 | 5.2 | 0.03 | 0.24 | 0.24 | 85 | 1019.4 |
| 20260830190629 | 72 | 123 | 0.0 | 1.7 | 0.03 | 0.24 | 0.24 | 86 | 1019.4 |
| 20260830190130 | 72 | 96 | 0.0 | 4.3 | 0.03 | 0.24 | 0.24 | 85 | 1019.4 |
| 20260830185631 | 72 | 160 | 0.9 | 4.3 | 0.00 | 0.21 | 0.21 | 86 | 1019.4 |
| 20260830185132 | 73 | 218 | 0.9 | 3.5 | 0.00 | 0.21 | 0.21 | 87 | 1019.3 |
| 20260830184625 | 72 | 158 | 0.9 | 6.1 | 0.00 | 0.21 | 0.21 | 88 | 1019.3 |
| 20260830184118 | 72 | 143 | 0.9 | 6.1 | 0.00 | 0.21 | 0.21 | 90 | 1019.1 |
| 20260830183618 | 72 | 143 | 0.9 | 3.5 | 0.00 | 0.21 | 0.21 | 92 | 1019.2 |
| 20260830183118 | 71 | 115 | 0.9 | 3.5 | 0.00 | 0.21 | 0.21 | 92 | 1019.2 |
| 20260830182616 | 71 | 175 | 0.9 | 5.2 | 0.00 | 0.21 | 0.21 | 92 | 1019.1 |
| 20260830182345 | 71 | 176 | 0.9 | 5.2 | 0.00 | 0.21 | 0.21 | 91 | 1018.9 |
| 20260830181612 | 71 | 227 | 0.9 | 3.5 | 0.00 | 0.21 | 0.21 | 91 | 1019.3 |
| 20260830181112 | 71 | 197 | 0.9 | 3.5 | 0.00 | 0.21 | 0.21 | 92 | 1019.1 |
| 20260830180612 | 71 | 194 | 1.7 | 12.2 | 0.00 | 0.21 | 0.21 | 92 | 1019.3 |
| 20260830180111 | 70 | 97 | 0.9 | 12.2 | 0.00 | 0.21 | 0.21 | 92 | 1019.4 |
| 20260830175612 | 70 | 236 | 0.9 | 6.1 | 0.00 | 0.21 | 0.21 | 92 | 1019.5 |
| 20260830175112 | 70 | 195 | 0.9 | 2.6 | 0.00 | 0.21 | 0.21 | 93 | 1019.6 |
| 20260830174615 | 70 | 153 | 0.0 | 2.6 | 0.01 | 0.21 | 0.21 | 93 | 1019.7 |
| 20260830174110 | 70 | 186 | 0.0 | 1.7 | 0.01 | 0.21 | 0.21 | 93 | 1019.7 |
| 20260830173611 | 70 | 124 | 0.0 | 1.7 | 0.01 | 0.21 | 0.21 | 93 | 1019.8 |
| 20260830173107 | 69 | 122 | 0.0 | 1.7 | 0.01 | 0.21 | 0.21 | 93 | 1019.9 |
| 20260830172607 | 69 | 203 | 0.9 | 3.5 | 0.01 | 0.21 | 0.21 | 93 | 1020.0 |
| 20260830172107 | 69 | 155 | 0.9 | 3.5 | 0.01 | 0.21 | 0.21 | 93 | 1019.8 |
| 20260830171607 | 69 | 130 | 0.0 | 2.6 | 0.01 | 0.21 | 0.21 | 93 | 1019.8 |
| 20260830171102 | 69 | 140 | 0.0 | 0.9 | 0.01 | 0.21 | 0.21 | 93 | 1020.1 |
| 20260830170556 | 69 | 181 | 0.0 | 0.9 | 0.01 | 0.21 | 0.21 | 93 | 1020.2 |
| 20260830170050 | 69 | 104 | 0.0 | 0.9 | 0.01 | 0.21 | 0.21 | 93 | 1020.2 |
| 20260830165544 | 69 | 110 | 0.0 | 1.7 | 0.01 | 0.21 | 0.21 | 93 | 1020.0 |
| 20260830165038 | 68 | 218 | 0.0 | 1.7 | 0.00 | 0.20 | 0.21 | 92 | 1020.3 |
| 20260830164532 | 69 | 185 | 0.0 | 2.6 | 0.00 | 0.20 | 0.20 | 93 | 1020.4 |
| 20260830164025 | 68 | 210 | 0.0 | 2.6 | 0.01 | 0.20 | 0.20 | 93 | 1020.5 |
| 20260830163520 | 68 | 111 | 0.0 | 1.7 | 0.01 | 0.20 | 0.20 | 93 | 1020.6 |
| 20260830163014 | 68 | 181 | 0.0 | 1.7 | 0.01 | 0.20 | 0.20 | 93 | 1020.9 |
| 20260830162508 | 68 | 151 | 0.0 | 2.6 | 0.01 | 0.20 | 0.20 | 93 | 1021.3 |
| 20260830162001 | 68 | 186 | 0.0 | 3.5 | 0.01 | 0.20 | 0.20 | 93 | 1021.4 |
| 20260830161727 | 68 | 203 | 0.0 | 3.5 | 0.02 | 0.20 | 0.20 | 93 | 1021.4 |
| 20260830161223 | 68 | 253 | 0.0 | 1.7 | 0.02 | 0.20 | 0.20 | 93 | 1021.5 |
| 20260830160444 | 68 | 244 | 0.0 | 0.9 | 0.02 | 0.20 | 0.20 | 93 | 1021.4 |
| 20260830160208 | 68 | 244 | 0.0 | 2.6 | 0.03 | 0.20 | 0.20 | 93 | 1021.4 |
| 20260830155430 | 68 | 268 | 0.9 | 3.5 | 0.03 | 0.20 | 0.20 | 93 | 1021.5 |
| 20260830154924 | 68 | 250 | 0.9 | 4.3 | 0.04 | 0.20 | 0.20 | 92 | 1021.5 |
| 20260830154418 | 68 | 280 | 0.0 | 5.2 | 0.04 | 0.20 | 0.20 | 92 | 1021.5 |
| 20260830154142 | 68 | 240 | 0.9 | 4.3 | 0.03 | 0.19 | 0.19 | 93 | 1021.6 |
| 20260830153406 | 68 | 283 | 0.9 | 4.3 | 0.03 | 0.19 | 0.19 | 92 | 1021.6 |
| 20260830152900 | 68 | 248 | 0.0 | 1.7 | 0.04 | 0.19 | 0.19 | 93 | 1021.8 |
| 20260830152354 | 68 | 248 | 0.9 | 2.6 | 0.04 | 0.19 | 0.19 | 93 | 1021.8 |
| 20260830151847 | 68 | 234 | 0.9 | 3.5 | 0.04 | 0.19 | 0.19 | 93 | 1021.7 |
| 20260830151341 | 68 | 259 | 0.9 | 5.2 | 0.03 | 0.18 | 0.18 | 93 | 1021.7 |
| 20260830150836 | 68 | 295 | 0.9 | 5.2 | 0.03 | 0.18 | 0.18 | 92 | 1021.7 |
| 20260830150330 | 68 | 227 | 1.7 | 8.7 | 0.04 | 0.18 | 0.18 | 92 | 1021.6 |
| 20260830145824 | 67 | 254 | 1.7 | 8.7 | 0.03 | 0.17 | 0.17 | 92 | 1021.6 |
| 20260830145318 | 68 | 245 | 3.5 | 9.6 | 0.04 | 0.17 | 0.17 | 92 | 1021.6 |
| 20260830144812 | 68 | 275 | 4.3 | 9.6 | 0.04 | 0.16 | 0.16 | 92 | 1021.5 |
| 20260830144306 | 68 | 241 | 3.5 | 9.6 | 0.04 | 0.16 | 0.16 | 92 | 1021.6 |
| 20260830144030 | 68 | 251 | 2.6 | 7.8 | 0.05 | 0.16 | 0.16 | 92 | 1021.6 |
| 20260830143254 | 68 | 281 | 2.6 | 8.7 | 0.06 | 0.15 | 0.15 | 92 | 1021.5 |
| 20260830142748 | 69 | 257 | 1.7 | 8.7 | 0.07 | 0.15 | 0.15 | 92 | 1021.3 |
| 20260830142514 | 69 | 231 | 1.7 | 5.2 | 0.09 | 0.15 | 0.15 | 92 | 1021.2 |
| 20260830142006 | 69 | 169 | 1.7 | 7.0 | 0.10 | 0.15 | 0.15 | 92 | 1021.2 |